Total_Precipitation_Accumulation
0.34 0.35 0.34 0.33 0.27 0.25 0.26 0.30 0.58 0.91 1.25 1.66 1.83 1.75 1.69 1.63 1.42 1.14 1.01 0.97 0.95 0.94 0.92 0.86 0.79 0.74 0.70 0.66 0.64 0.67 0.69 0.66 0.59 0.50 0.47 0.46 0.47 0.48 0.47 0.43 0.40 0.38 0.34 0.31
0.30 0.25 0.30 0.36 0.36 0.38 0.42 0.46 0.63 0.99 1.49 1.90 1.98 1.82 1.74 1.68 1.54 1.36 1.27 1.20 1.15 1.09 1.05 1.02 0.94 0.84 0.77 0.74 0.73 0.77 0.81 0.83 0.78 0.71 0.65 0.60 0.54 0.48 0.42 0.38 0.32 0.25 0.20 0.18
0.48 0.30 0.43 0.73 0.59 0.50 0.54 0.61 0.80 1.23 1.55 1.63 1.71 1.75 1.79 1.84 1.76 1.59 1.49 1.42 1.36 1.31 1.24 1.19 1.11 1.03 0.97 0.90 0.85 0.84 0.87 0.88 0.83 0.75 0.67 0.57 0.46 0.38 0.34 0.30 0.28 0.25 0.19 0.16
0.51 0.57 1.02 0.99 0.56 0.53 0.64 0.72 0.81 0.99 1.16 1.27 1.28 1.35 1.44 1.55 1.60 1.56 1.44 1.40 1.37 1.33 1.32 1.30 1.20 1.12 1.06 1.00 0.93 0.89 0.91 0.86 0.78 0.66 0.57 0.47 0.39 0.35 0.32 0.29 0.30 0.29 0.24 0.21
0.55 0.80 1.03 0.94 0.53 0.51 0.84 1.23 1.02 0.95 0.88 0.83 0.81 0.91 1.19 1.36 1.39 1.44 1.48 1.47 1.43 1.34 1.25 1.22 1.17 1.12 1.07 1.03 0.95 0.89 0.85 0.74 0.60 0.49 0.44 0.40 0.36 0.34 0.32 0.29 0.28 0.25 0.23 0.22
0.60 0.92 1.22 1.15 0.50 0.35 0.69 1.51 1.22 1.02 0.89 0.81 0.89 1.04 1.10 1.08 1.09 1.17 1.22 1.24 1.17 1.08 1.00 0.98 1.00 0.98 0.94 0.90 0.83 0.75 0.62 0.50 0.42 0.40 0.38 0.37 0.34 0.31 0.29 0.29 0.28 0.23 0.20 0.19
0.70 1.02 1.24 0.62 0.26 0.41 1.08 1.40 1.16 0.99 0.85 0.82 1.00 1.00 0.78 0.74 0.81 0.85 0.90 0.89 0.84 0.83 0.90 0.93 0.87 0.78 0.74 0.71 0.64 0.53 0.44 0.39 0.36 0.33 0.29 0.30 0.32 0.31 0.30 0.29 0.30 0.28 0.26 0.22
0.81 1.11 1.22 0.48 0.31 0.59 0.76 0.67 0.75 0.78 0.74 0.69 0.64 0.53 0.50 0.51 0.55 0.58 0.61 0.63 0.63 0.67 0.75 0.75 0.66 0.61 0.62 0.58 0.48 0.37 0.38 0.39 0.36 0.31 0.24 0.27 0.35 0.35 0.33 0.36 0.39 0.37 0.34 0.31
0.78 0.98 0.80 0.42 0.34 0.37 0.42 0.54 0.54 0.53 0.49 0.38 0.34 0.32 0.35 0.37 0.38 0.42 0.42 0.47 0.52 0.54 0.58 0.60 0.57 0.58 0.61 0.57 0.44 0.41 0.46 0.48 0.38 0.29 0.27 0.29 0.33 0.34 0.33 0.34 0.32 0.30 0.29 0.29
0.50 0.62 0.49 0.38 0.33 0.30 0.30 0.36 0.33 0.34 0.33 0.25 0.24 0.29 0.32 0.35 0.33 0.34 0.37 0.39 0.44 0.45 0.45 0.47 0.46 0.51 0.54 0.47 0.44 0.52 0.59 0.51 0.38 0.34 0.31 0.31 0.29 0.25 0.24 0.26 0.24 0.22 0.21 0.20
0.49 0.55 0.49 0.48 0.31 0.24 0.22 0.21 0.20 0.24 0.25 0.20 0.19 0.27 0.29 0.32 0.33 0.35 0.36 0.37 0.39 0.41 0.40 0.35 0.34 0.38 0.38 0.41 0.48 0.64 0.61 0.48 0.38 0.32 0.29 0.29 0.24 0.16 0.12 0.11 0.09 0.13 0.15 0.14
0.44 0.39 0.45 0.51 0.35 0.22 0.23 0.22 0.21 0.19 0.20 0.23 0.23 0.25 0.25 0.27 0.30 0.32 0.31 0.31 0.36 0.38 0.34 0.33 0.33 0.33 0.33 0.38 0.43 0.55 0.55 0.41 0.32 0.28 0.23 0.19 0.18 0.17 0.09 0.05 0.03 0.03 0.05 0.05
0.22 0.21 0.25 0.24 0.19 0.17 0.19 0.21 0.22 0.21 0.20 0.23 0.25 0.24 0.23 0.23 0.24 0.27 0.30 0.31 0.35 0.36 0.32 0.28 0.29 0.30 0.28 0.29 0.33 0.40 0.41 0.30 0.23 0.21 0.21 0.19 0.17 0.23 0.23 0.11 0.04 0.02 0.03 0.04
0.09 0.12 0.18 0.21 0.22 0.18 0.19 0.21 0.21 0.19 0.21 0.25 0.25 0.22 0.18 0.17 0.20 0.23 0.26 0.23 0.20 0.22 0.24 0.26 0.23 0.21 0.17 0.17 0.24 0.25 0.20 0.12 0.12 0.16 0.15 0.14 0.13 0.14 0.17 0.21 0.21 0.14 0.06 0.04
0.10 0.13 0.19 0.23 0.24 0.20 0.21 0.23 0.22 0.21 0.20 0.22 0.20 0.16 0.13 0.13 0.16 0.16 0.16 0.13 0.15 0.20 0.20 0.18 0.17 0.16 0.11 0.11 0.14 0.14 0.11 0.11 0.10 0.09 0.07 0.07 0.08 0.08 0.07 0.11 0.18 0.21 0.16 0.08
0.14 0.15 0.17 0.22 0.24 0.24 0.24 0.25 0.23 0.20 0.15 0.14 0.13 0.11 0.11 0.11 0.10 0.10 0.10 0.11 0.17 0.20 0.18 0.16 0.16 0.12 0.07 0.07 0.10 0.10 0.08 0.05 0.07 0.07 0.06 0.05 0.05 0.05 0.05 0.07 0.11 0.16 0.16 0.10
0.18 0.18 0.15 0.16 0.18 0.20 0.18 0.14 0.12 0.11 0.09 0.08 0.08 0.07 0.06 0.07 0.08 0.09 0.10 0.11 0.15 0.18 0.16 0.15 0.11 0.06 0.03 0.03 0.06 0.06 0.04 0.02 0.01 0.03 0.05 0.04 0.04 0.04 0.04 0.04 0.08 0.10 0.08 0.06
0.17 0.14 0.12 0.11 0.11 0.10 0.08 0.06 0.06 0.07 0.06 0.03 0.03 0.04 0.05 0.07 0.07 0.07 0.08 0.07 0.10 0.13 0.12 0.07 0.05 0.03 0.02 0.02 0.03 0.03 0.03 0.02 0.02 0.03 0.03 0.02 0.03 0.04 0.04 0.04 0.06 0.07 0.07 0.06
0.09 0.06 0.06 0.06 0.05 0.04 0.03 0.04 0.04 0.04 0.03 0.01 0.02 0.04 0.05 0.05 0.04 0.04 0.05 0.06 0.09 0.11 0.09 0.04 0.02 0.02 0.02 0.02 0.01 0.02 0.01 0.01 0.01 0.01 0.01 0.01 0.01 0.02 0.02 0.03 0.03 0.03 0.05 0.07
0.03 0.02 0.03 0.03 0.02 0.02 0.02 0.03 0.02 0.02 0.02 0.02 0.03 0.03 0.03 0.02 0.02 0.02 0.04 0.07 0.08 0.07 0.04 0.02 0.01 0.02 0.02 0.01 0.01 0.01 0.01 0.01 0.01 0.01 0.01 0.01 0.01 0.01 0.01 0.02 0.01 0.02 0.03 0.04
0.02 0.02 0.02 0.02 0.02 0.02 0.02 0.02 0.02 0.02 0.02 0.02 0.02 0.03 0.02 0.02 0.01 0.02 0.03 0.06 0.06 0.04 0.02 0.01 0.02 0.01 0.01 0.00 0.00 0.00 0.00 0.00 0.00 0.00 0.00 0.00 0.00 0.00 0.01 0.01 0.01 0.01 0.02 0.03
0.03 0.02 0.02 0.02 0.01 0.02 0.02 0.03 0.03 0.02 0.01 0.01 0.01 0.02 0.01 0.01 0.01 0.02 0.03 0.05 0.04 0.02 0.01 0.00 0.01 0.01 0.00 0.00 0.00 0.00 0.00 0.00 0.01 0.00 0.00 0.00 0.01 0.01 0.01 0.01 0.01 0.01 0.02 0.03
0.06 0.03 0.02 0.02 0.01 0.02 0.03 0.03 0.02 0.01 0.01 0.01 0.01 0.01 0.01 0.01 0.01 0.01 0.02 0.02 0.01 0.00 0.01 0.01 0.00 0.00 0.00 0.00 0.00 0.00 0.00 0.00 0.01 0.01 0.01 0.01 0.01 0.01 0.01 0.00 0.00 0.01 0.01 0.01
0.10 0.06 0.03 0.03 0.03 0.03 0.03 0.02 0.01 0.01 0.01 0.01 0.01 0.01 0.01 0.01 0.01 0.00 0.00 0.00 0.00 0.00 0.00 0.00 0.00 0.00 0.00 0.00 0.01 0.01 0.00 0.00 0.00 0.01 0.01 0.01 0.01 0.00 0.00 0.00 0.00 0.00 0.01 0.01
0.08 0.07 0.04 0.04 0.05 0.04 0.04 0.02 0.02 0.01 0.01 0.01 0.01 0.00 0.00 0.00 0.00 0.00 0.00 0.00 0.00 0.00 0.00 0.00 0.00 0.00 0.00 0.00 0.01 0.00 0.00 0.00 0.01 0.01 0.01 0.01 0.01 0.00 0.00 0.01 0.01 0.01 0.01 0.01
0.13 0.13 0.09 0.06 0.05 0.04 0.03 0.02 0.02 0.03 0.02 0.02 0.01 0.01 0.01 0.00 0.00 0.00 0.00 0.00 0.00 0.00 0.00 0.00 0.00 0.00 0.00 0.01 0.01 0.01 0.01 0.01 0.01 0.01 0.01 0.01 0.01 0.01 0.01 0.01 0.01 0.01 0.01 0.01
0.21 0.18 0.13 0.11 0.08 0.04 0.02 0.02 0.02 0.03 0.02 0.02 0.02 0.01 0.01 0.01 0.00 0.00 0.00 0.00 0.00 0.00 0.00 0.00 0.00 0.00 0.00 0.00 0.00 0.01 0.01 0.01 0.01 0.01 0.01 0.01 0.01 0.01 0.01 0.01 0.02 0.02 0.02 0.01